Location: A�n Tadlesse
(35.0351°N, 0.5353°E)
Time: 22:56:43
(UTC+00:00)

Cosmos 468 Rocket - Pass Details

Date: 21 October 2019
Orbit: 745 x 779 km, 74.0° (Epoch: 17 November)

Event Time Altitude Azimuth Distance (km) Brightness Sun altitude
Rises 19:17:04 0° 205° (SSW) 3,241 7.5 -25.5°
Reaches altitude 10° 19:19:28 10° 208° (SSW) 2,315 6.7 -26.0°
Maximum altitude 19:24:40 61° 289° (WNW) 871 4.4 -27.0°
Enters shadow 19:28:19 20° 5° (N) 1,737 5.8 -27.8°
